Starlink 31589

operational
NORAD ID: 59654 Int'l Des: 2024-084 Owner: SPXS Country: US Constellation: starlink
LEOCIRCULAR

Starlink 31589について

説明を読み込み中...

リアルタイム位置

3D地球を読み込み中...

次回通過

高度履歴

Altitude vs Time

uPlot chart will show altitude changes over time

軌道要素

1 59654U 24084A 25307.94191644 .00002390 00000-0 96332-4 0 9993
2 59654 43.0012 31.7908 0000927 268.0624 92.0121 15.27584251 85160
Epoch: Nov 3, 2025 • Age: 17 hours

現在のステータス

高度 487.9 km
速度 7.62 km/s
衛星直下点 -22.32°S, 38.72°W
打ち上げ日 May 6, 2024
運用期間 1.4 years
タイプ internet

技術仕様

分類 Payload
質量 730.00 kg
乾燥質量 700.00 kg
総質量 730.00 kg
長さ 0.30 m
直径 4.10 m
スパン 29.00 m
形状 Box + pan
製造者 SPXS
バスタイプ Starlink V2M
フェーズステータス In Orbit
所有者/国 SPXS/US

大規模コンステレーション

Loading constellations...